Temperature
-2 -1 -1 -2 -3 -3 -3 -3 -3 -2 -2 -3 -3 -4 -4 -4 -4 -5 -5 -5 -5 -4 -4 -4 -4 -4 -4 -4 -4 -3 -3 -3 -3 -3 -3 -3 -3 -2 -2 -2 -2 -2 -2 -1
-3 -2 -2 -2 -3 -3 -3 -3 -3 -3 -3 -4 -4 -4 -4 -5 -5 -5 -5 -6 -5 -5 -5 -5 -5 -5 -5 -4 -4 -4 -4 -4 -4 -3 -3 -3 -3 -3 -3 -3 -3 -3 -3 -2
-3 -3 -3 -4 -4 -4 -4 -4 -4 -4 -4 -5 -5 -5 -5 -5 -5 -6 -6 -6 -6 -6 -6 -5 -5 -5 -5 -5 -5 -5 -5 -4 -4 -4 -4 -4 -4 -4 -3 -3 -3 -3 -3 -3
-4 -4 -4 -3 -4 -4 -4 -5 -5 -5 -5 -5 -5 -6 -6 -5 -6 -6 -7 -7 -7 -6 -6 -6 -6 -6 -5 -5 -5 -5 -5 -5 -5 -5 -5 -5 -4 -4 -4 -4 -4 -4 -4 -4
-4 -4 -3 -4 -5 -5 -6 -5 -6 -6 -6 -6 -6 -6 -6 -6 -6 -7 -7 -7 -7 -7 -6 -6 -6 -6 -6 -6 -5 -5 -5 -5 -5 -5 -5 -5 -5 -5 -5 -5 -5 -5 -5 -5
-4 -4 -4 -4 -6 -5 -6 -6 -6 -6 -7 -7 -7 -7 -7 -7 -7 -7 -7 -7 -7 -7 -7 -7 -7 -7 -6 -6 -6 -6 -6 -6 -6 -6 -6 -6 -6 -6 -5 -6 -5 -6 -5 -5
-5 -4 -4 -6 -6 -6 -6 -6 -6 -6 -6 -7 -7 -8 -7 -7 -8 -8 -8 -8 -8 -8 -7 -7 -7 -7 -7 -7 -6 -6 -7 -7 -7 -6 -6 -6 -6 -6 -6 -6 -6 -6 -6 -6
-5 -5 -5 -7 -7 -7 -7 -6 -6 -6 -7 -7 -8 -8 -8 -8 -8 -8 -8 -8 -8 -8 -8 -8 -8 -8 -7 -7 -7 -7 -7 -7 -7 -7 -7 -7 -7 -7 -7 -7 -7 -7 -7 -7
-6 -6 -7 -7 -7 -7 -7 -7 -7 -7 -8 -8 -8 -8 -9 -9 -9 -9 -9 -9 -9 -8 -8 -8 -8 -8 -8 -8 -8 -8 -8 -8 -8 -8 -8 -8 -8 -8 -8 -8 -8 -8 -8 -8
-7 -8 -7 -7 -7 -7 -7 -8 -8 -8 -8 -9 -9 -9 -9 -9 -9 -9 -9 -9 -9 -9 -9 -9 -9 -9 -9 -9 -9 -9 -8 -9 -9 -9 -9 -9 -9 -9 -8 -8 -8 -8 -8 -8
-8 -9 -8 -8 -8 -8 -8 -8 -8 -9 -9 -9 -10 -10 -10 -10 -10 -10 -10 -10 -10 -10 -10 -10 -9 -9 -9 -9 -9 -9 -9 -9 -9 -9 -9 -9 -9 -9 -9 -9 -9 -9 -9 -9
-8 -8 -9 -8 -8 -8 -9 -9 -9 -9 -10 -10 -10 -10 -10 -11 -11 -10 -10 -10 -10 -10 -10 -10 -10 -10 -10 -10 -10 -10 -10 -10 -10 -10 -10 -10 -10 -10 -10 -10 -10 -10 -10 -9
-8 -8 -8 -8 -8 -9 -9 -9 -10 -10 -10 -10 -11 -11 -11 -11 -11 -11 -11 -11 -11 -11 -11 -11 -11 -11 -11 -11 -11 -11 -11 -11 -11 -11 -11 -11 -11 -11 -11 -10 -10 -10 -10 -10
-9 -9 -9 -9 -9 -10 -10 -10 -10 -11 -11 -11 -11 -11 -11 -11 -11 -11 -11 -11 -12 -12 -12 -11 -11 -11 -11 -11 -11 -11 -11 -11 -11 -11 -11 -11 -11 -11 -11 -11 -11 -11 -11 -11
-10 -10 -10 -10 -10 -10 -10 -11 -11 -11 -12 -12 -12 -12 -12 -12 -12 -12 -12 -12 -12 -12 -12 -12 -12 -12 -12 -12 -12 -11 -12 -12 -12 -12 -12 -12 -12 -12 -12 -12 -12 -12 -11 -11
-11 -11 -11 -11 -11 -11 -11 -12 -12 -12 -12 -12 -12 -12 -12 -12 -12 -12 -12 -12 -12 -12 -12 -12 -12 -12 -12 -12 -12 -12 -12 -12 -12 -12 -12 -12 -12 -12 -12 -12 -12 -12 -12 -12
-12 -12 -12 -12 -12 -12 -12 -12 -12 -12 -12 -12 -12 -12 -13 -13 -13 -13 -13 -13 -13 -13 -13 -13 -13 -13 -13 -13 -13 -13 -13 -13 -13 -13 -13 -13 -13 -13 -13 -13 -13 -13 -13 -13
-12 -12 -12 -12 -12 -13 -13 -13 -13 -13 -13 -13 -13 -13 -13 -13 -13 -13 -13 -13 -13 -13 -13 -13 -13 -13 -13 -13 -13 -13 -13 -13 -13 -13 -13 -13 -13 -13 -13 -13 -13 -13 -13 -13
-12 -12 -12 -13 -13 -13 -13 -13 -13 -13 -13 -13 -13 -13 -13 -13 -14 -14 -14 -14 -14 -14 -14 -14 -14 -14 -14 -14 -14 -14 -13 -13 -13 -13 -13 -14 -14 -14 -14 -14 -14 -13 -13 -13
-13 -13 -13 -13 -13 -13 -13 -13 -13 -13 -13 -13 -13 -13 -14 -14 -14 -14 -14 -14 -14 -14 -14 -14 -14 -14 -14 -14 -14 -14 -14 -14 -14 -14 -14 -14 -14 -14 -14 -14 -14 -14 -14 -14
-13 -13 -13 -13 -13 -13 -13 -13 -13 -13 -13 -13 -14 -14 -14 -14 -14 -14 -14 -14 -14 -14 -15 -14 -14 -14 -14 -14 -14 -14 -14 -14 -14 -14 -14 -14 -14 -14 -14 -14 -14 -14 -14 -14
-13 -13 -13 -14 -13 -13 -13 -13 -14 -14 -14 -14 -14 -14 -14 -14 -15 -15 -15 -15 -15 -15 -15 -15 -15 -15 -15 -15 -15 -15 -15 -15 -15 -15 -15 -15 -15 -15 -15 -15 -15 -15 -15 -15
-14 -14 -14 -14 -14 -14 -14 -14 -14 -14 -14 -14 -14 -15 -15 -15 -15 -15 -15 -15 -15 -15 -15 -15 -15 -15 -15 -15 -15 -15 -15 -15 -15 -15 -15 -15 -15 -15 -15 -15 -15 -15 -15 -15
-14 -14 -14 -14 -14 -14 -14 -14 -14 -14 -15 -15 -15 -15 -15 -15 -15 -15 -16 -16 -15 -15 -15 -15 -16 -16 -16 -16 -16 -16 -16 -16 -16 -16 -16 -16 -16 -16 -15 -15 -15 -15 -15 -15
-14 -14 -14 -15 -15 -15 -15 -15 -15 -15 -15 -15 -15 -15 -16 -16 -16 -16 -16 -16 -16 -16 -16 -16 -16 -16 -16 -16 -16 -16 -16 -16 -16 -16 -16 -16 -16 -16 -16 -16 -15 -15 -15 -15
-15 -15 -15 -15 -15 -15 -15 -15 -16 -16 -16 -16 -15 -16 -16 -16 -16 -16 -16 -16 -16 -16 -16 -16 -16 -16 -16 -16 -16 -16 -16 -16 -16 -16 -16 -16 -16 -16 -16 -16 -16 -15 -15 -15
-15 -15 -15 -16 -16 -16 -16 -16 -16 -16 -16 -16 -16 -16 -16 -16 -16 -16 -17 -17 -17 -17 -17 -17 -17 -17 -17 -16 -16 -16 -16 -16 -16 -16 -16 -16 -16 -16 -16 -16 -16 -16 -15 -15
Wind_Speed
9 9 7 7 7 6 8 8 7 7 7 7 5 4 5 4 4 4 5 5 6 5 4 4 4 4 3 3 2 2 1 2 2 2 2 2 2 2 3 3 3 3 3 3
7 7 6 7 8 8 8 8 9 10 9 4 4 3 4 4 4 4 5 5 5 6 4 5 4 4 4 3 3 2 2 2 2 2 2 2 2 3 3 3 3 3 3 3
4 3 4 6 6 7 5 3 4 8 7 3 4 5 5 4 4 4 5 5 5 5 4 4 4 4 4 4 3 2 2 2 1 2 2 3 3 3 3 3 3 3 3 3
3 2 5 5 0 2 4 4 4 4 4 3 4 5 5 3 2 3 5 5 6 5 5 5 4 4 4 4 3 2 2 2 2 1 2 2 2 3 3 2 3 3 3 4
2 4 6 2 1 1 2 5 3 4 5 4 4 5 2 1 2 3 4 4 5 4 4 4 5 4 4 4 3 2 2 3 2 2 2 2 3 3 2 2 2 2 3 3
3 4 5 3 0 1 1 4 2 2 3 4 3 4 4 2 3 4 4 4 4 4 4 4 5 4 4 4 3 3 3 3 2 2 2 3 3 2 2 2 2 2 2 3
6 5 5 2 1 2 2 5 3 2 3 3 3 4 4 4 4 3 3 4 3 4 4 4 4 4 4 4 4 4 3 2 2 2 2 2 2 2 1 1 1 2 2 2
4 5 6 0 2 3 4 3 2 3 3 3 4 4 4 4 4 4 4 4 3 3 4 4 3 3 4 4 5 4 3 2 2 2 1 1 2 2 2 2 2 2 2 2
5 6 2 2 3 2 2 3 4 3 4 3 4 5 5 4 4 4 4 4 3 3 4 4 3 3 4 5 4 3 2 2 2 2 1 1 1 2 2 2 2 2 2 2
4 5 4 3 2 3 3 3 4 3 4 3 4 6 6 5 4 4 4 3 3 3 4 4 4 4 4 4 3 2 2 2 1 1 1 1 1 1 2 2 2 2 3 2
5 5 4 3 3 3 3 3 3 3 3 3 4 5 5 5 4 4 4 3 3 3 4 5 4 4 4 3 2 2 2 1 1 1 1 1 1 1 2 2 2 3 2 2
6 4 4 5 3 3 4 4 4 4 4 3 3 5 5 5 4 3 3 3 3 4 4 4 4 4 4 3 2 1 1 1 1 0 0 0 0 1 2 2 3 3 3 4
5 4 4 4 3 2 3 4 4 3 4 4 4 3 3 4 3 2 2 3 3 4 4 4 4 4 4 3 2 1 2 1 1 0 0 0 0 0 1 2 3 4 4 4
2 2 3 3 3 3 3 3 3 3 3 2 2 2 2 2 3 3 3 3 3 3 3 3 3 4 4 3 2 1 1 2 1 1 1 1 1 1 1 1 2 3 4 4
3 3 3 3 3 3 3 2 3 3 3 3 2 2 2 2 3 3 3 3 3 3 3 3 4 5 4 2 2 1 1 1 1 1 1 1 1 1 1 1 2 2 2 3
4 3 2 3 3 3 3 3 3 3 3 3 3 3 2 2 2 3 3 2 2 3 4 4 4 5 3 2 2 2 1 2 2 1 1 1 1 1 1 1 2 2 2 2
2 3 3 4 4 4 3 3 3 3 3 3 3 3 2 2 3 3 3 3 2 2 3 4 4 4 3 2 2 2 1 2 3 2 1 1 1 1 1 1 2 2 2 3
2 3 3 4 4 4 4 3 3 3 3 3 2 2 2 2 3 3 3 3 3 4 4 4 3 3 3 2 2 2 1 1 1 1 1 1 1 1 1 2 2 2 2 3
2 2 2 3 3 2 3 3 3 3 2 2 2 2 2 2 2 3 3 3 4 5 5 4 5 4 3 3 3 1 2 2 1 2 2 2 2 1 2 2 2 2 3 3
3 3 3 3 2 2 2 2 2 2 2 1 1 2 2 3 2 3 3 3 4 3 4 4 4 3 3 3 4 1 2 2 2 2 2 1 2 2 2 2 2 3 3 3
3 3 3 2 2 2 2 2 2 2 2 2 2 2 3 3 3 3 3 4 4 4 4 6 4 3 3 3 4 2 2 2 2 2 2 2 2 2 2 2 3 3 3 3
3 3 3 2 2 3 3 2 2 2 2 3 3 3 3 4 4 3 3 4 4 6 5 3 3 5 5 5 2 2 2 2 2 2 2 2 3 3 3 3 3 4 4 4
2 2 2 3 2 3 3 3 2 2 3 3 3 3 4 4 3 3 5 4 3 7 5 4 6 8 8 3 2 2 2 3 3 3 3 3 3 3 4 4 4 4 4 4
2 2 3 3 2 2 3 4 3 3 3 3 3 3 3 4 4 3 3 7 8 8 5 6 9 9 7 2 2 2 3 3 3 4 4 4 4 4 4 4 4 4 5 5
2 2 2 3 2 3 3 4 4 3 3 3 3 3 3 3 3 4 4 5 8 8 5 7 9 9 5 3 3 3 3 4 4 4 4 4 4 4 4 4 5 5 5 5
2 2 2 2 2 2 3 3 3 3 4 4 4 4 4 3 4 4 4 4 6 8 5 4 5 6 3 3 3 4 4 5 5 4 4 4 5 5 5 5 6 6 6 6
2 2 2 2 2 2 3 3 3 4 4 4 5 5 4 4 4 4 5 5 5 4 4 4 4 3 3 3 3 4 4 4 4 5 4 4 5 5 5 6 6 6 7 7
Wind_Direction
266 278 272 264 264 239 223 230 243 265 266 281 297 309 316 326 335 348 354 356 352 344 341 344 348 345 346 345 348 339 303 259 241 220 203 191 193 197 187 185 189 181 183 188
272 265 265 270 265 245 240 246 253 269 276 287 304 319 318 319 333 341 345 346 345 344 345 344 340 336 337 335 334 330 290 263 249 222 203 198 200 197 188 185 181 179 187 188
266 281 304 271 248 226 219 220 223 249 262 291 314 312 306 307 330 336 338 334 333 334 331 331 329 329 324 320 325 325 303 291 276 232 201 194 198 190 187 188 183 190 198 196
273 311 247 237 114 186 216 238 233 251 278 292 291 303 297 290 326 342 340 336 334 335 337 334 334 334 325 324 322 317 304 288 271 244 216 196 188 195 197 194 193 197 205 206
239 255 265 252 249 162 214 267 244 263 288 307 325 315 288 358 9 330 321 318 318 320 326 330 333 331 325 319 316 305 294 284 265 240 224 210 207 207 201 194 200 208 208 205
242 252 255 255 338 35 118 265 301 301 278 296 327 302 285 324 328 317 320 320 317 322 327 327 327 330 326 315 309 293 284 280 277 241 222 221 217 215 217 213 213 213 220 215
239 247 255 271 304 97 176 257 315 304 279 276 262 257 279 306 310 308 312 314 320 320 317 314 321 328 321 314 299 293 294 292 287 268 240 227 217 212 201 211 204 207 217 224
216 233 248 267 121 187 235 300 315 308 300 279 275 285 296 305 309 317 317 315 313 312 311 315 322 325 314 306 300 302 302 299 292 281 264 245 209 206 196 191 197 206 212 223
211 225 238 168 189 240 309 303 306 309 307 293 288 292 298 300 302 306 307 306 307 309 311 315 319 321 308 306 308 307 308 303 298 308 292 267 222 203 195 194 200 215 215 224
254 255 256 240 249 287 301 293 303 304 297 291 284 292 297 294 296 301 304 304 310 315 314 314 319 318 306 311 317 313 305 302 299 287 291 283 257 224 203 202 208 223 225 230
252 272 289 257 263 282 298 302 304 305 293 283 282 289 291 292 292 294 300 309 311 311 307 309 316 318 319 322 325 317 304 298 299 300 264 265 284 261 248 233 234 229 228 231
245 251 253 270 282 292 293 293 296 301 303 304 292 288 292 293 295 294 299 308 313 311 310 315 322 321 321 323 322 295 294 295 282 253 273 305 325 330 325 312 305 289 278 268
250 280 269 278 294 311 285 289 299 295 289 295 303 297 293 297 305 314 314 313 308 308 310 314 319 319 321 319 312 286 269 273 280 292 243 235 253 276 315 334 333 325 311 294
280 301 282 288 299 313 310 305 301 302 300 295 300 307 302 308 318 318 309 308 311 315 317 321 324 317 318 318 311 294 287 287 289 249 244 244 243 251 251 275 306 311 313 310
301 294 274 303 321 324 322 324 320 315 323 327 328 319 317 313 315 317 319 326 333 335 333 334 329 320 326 328 318 302 293 282 267 249 247 252 261 271 271 275 282 294 312 316
301 293 293 305 307 313 322 319 308 307 317 319 324 320 315 313 320 329 337 349 353 336 333 333 320 315 323 328 320 307 289 295 288 259 245 241 243 247 259 273 283 287 294 301
301 292 301 300 300 304 303 300 296 298 308 311 312 320 331 336 335 335 338 342 341 328 328 324 316 318 321 317 306 295 287 289 298 296 272 258 245 242 252 262 271 281 287 290
261 269 272 279 283 289 297 306 312 312 308 310 323 334 332 326 318 322 328 336 339 334 327 316 315 321 325 316 297 296 290 280 279 275 274 270 261 249 256 262 269 275 287 294
312 303 307 312 304 293 294 300 306 312 321 329 329 324 322 320 316 319 329 337 331 321 321 322 330 338 326 313 310 292 281 276 278 277 276 281 288 271 259 259 264 268 274 282
341 334 333 336 339 322 309 314 325 332 334 339 337 331 329 326 325 321 322 313 298 292 308 319 322 319 309 302 308 298 287 278 272 274 276 272 279 283 275 273 273 272 275 276
333 335 338 341 342 341 335 332 327 323 330 340 327 311 307 312 314 309 308 306 311 311 315 320 324 311 301 296 302 292 286 287 280 275 274 271 272 273 272 273 275 277 277 278
332 334 335 338 342 338 340 342 332 326 331 331 326 320 316 314 311 301 279 274 299 315 320 311 308 305 308 308 300 291 282 283 281 274 269 265 265 267 269 270 271 273 273 271
334 335 335 334 330 327 335 338 332 324 315 312 309 305 299 298 301 299 302 302 300 308 316 305 303 306 310 315 296 285 278 271 269 268 264 259 257 258 263 266 266 267 269 270
337 340 335 333 339 343 332 328 327 320 305 299 292 288 291 299 299 287 286 310 316 311 307 305 310 312 318 325 300 284 275 269 265 264 260 257 256 258 260 262 265 267 267 268
333 333 336 340 337 325 322 327 328 325 322 316 311 306 293 283 287 299 303 304 309 313 310 311 313 315 321 309 298 289 283 274 267 262 254 257 259 260 261 261 263 267 268 269
328 323 315 314 315 322 327 324 320 320 323 321 318 313 308 304 300 299 301 299 297 307 309 302 302 304 302 296 290 287 283 287 291 288 275 268 263 261 262 263 265 266 268 270
336 333 331 331 337 335 328 323 320 319 319 312 308 311 314 313 310 310 307 304 303 302 299 297 296 294 294 291 288 284 282 280 277 274 273 270 267 264 264 264 266 269 272 273
Height
1487 1484 1484 1485 1485 1486 1487 1485 1485 1477 1475 1474 1474 1474 1473 1471 1470 1468 1467 1465 1464 1462 1461 1460 1459 1457 1456 1455 1455 1454 1454 1454 1455 1456 1458 1459 1461 1463 1465 1467 1468 1470 1472 1474
1487 1482 1481 1481 1480 1481 1482 1481 1480 1476 1475 1473 1472 1472 1471 1470 1468 1467 1465 1464 1463 1461 1460 1458 1457 1455 1454 1453 1453 1452 1452 1451 1452 1454 1455 1456 1458 1460 1461 1463 1464 1466 1467 1469
1485 1482 1481 1481 1477 1476 1477 1476 1477 1477 1474 1472 1471 1471 1470 1469 1467 1466 1464 1463 1461 1460 1458 1457 1455 1454 1452 1451 1451 1450 1449 1449 1450 1451 1451 1453 1455 1456 1458 1459 1460 1461 1463 1465
1486 1486 1486 1476 1472 1471 1472 1473 1473 1472 1471 1470 1470 1469 1468 1467 1466 1464 1463 1461 1459 1458 1456 1455 1453 1452 1450 1449 1448 1447 1447 1447 1447 1448 1448 1450 1451 1452 1453 1455 1456 1458 1459 1461
1485 1484 1475 1473 1472 1473 1474 1472 1470 1470 1469 1469 1468 1465 1465 1464 1464 1463 1461 1460 1458 1456 1454 1452 1451 1449 1447 1446 1445 1445 1444 1444 1445 1445 1446 1447 1448 1449 1450 1451 1453 1454 1456 1457
1483 1482 1478 1472 1471 1469 1472 1472 1467 1467 1467 1467 1466 1467 1464 1463 1461 1460 1458 1457 1455 1453 1451 1450 1448 1447 1445 1444 1443 1442 1442 1441 1442 1442 1443 1443 1444 1446 1447 1448 1449 1451 1452 1453
1483 1480 1473 1473 1470 1470 1476 1471 1467 1466 1466 1465 1465 1465 1463 1460 1459 1457 1455 1454 1452 1450 1449 1447 1446 1444 1442 1441 1440 1440 1439 1439 1439 1439 1440 1441 1442 1443 1444 1445 1446 1447 1448 1449
1481 1479 1474 1470 1470 1472 1470 1466 1465 1464 1464 1463 1462 1460 1459 1457 1456 1454 1452 1450 1449 1447 1446 1444 1443 1442 1440 1439 1438 1437 1436 1436 1436 1436 1437 1438 1439 1440 1441 1442 1443 1444 1445 1446
1475 1473 1468 1467 1466 1466 1466 1465 1463 1462 1461 1460 1459 1457 1456 1454 1452 1451 1449 1447 1446 1444 1442 1442 1441 1439 1437 1436 1435 1434 1434 1433 1433 1433 1434 1435 1436 1437 1438 1439 1439 1440 1441 1442
1470 1466 1465 1465 1464 1464 1463 1462 1461 1460 1459 1457 1455 1454 1452 1451 1449 1447 1446 1444 1443 1441 1440 1439 1438 1437 1435 1434 1433 1432 1431 1431 1431 1431 1432 1432 1433 1434 1434 1435 1436 1437 1438 1438
1468 1465 1463 1461 1461 1460 1460 1459 1458 1456 1455 1454 1452 1450 1449 1447 1446 1444 1443 1442 1440 1439 1437 1436 1435 1434 1433 1432 1431 1430 1429 1429 1429 1429 1430 1430 1431 1431 1432 1433 1433 1434 1434 1435
1464 1461 1461 1458 1458 1457 1456 1455 1454 1453 1451 1450 1449 1447 1446 1444 1442 1441 1440 1439 1438 1436 1435 1434 1433 1432 1431 1430 1429 1428 1427 1427 1427 1427 1427 1428 1428 1429 1429 1430 1431 1431 1432 1433
1458 1457 1457 1455 1455 1454 1453 1452 1451 1450 1448 1447 1446 1444 1443 1441 1439 1438 1437 1436 1435 1434 1433 1431 1430 1429 1428 1428 1427 1426 1425 1425 1425 1425 1425 1425 1426 1426 1426 1427 1428 1428 1428 1429
1455 1455 1453 1452 1452 1451 1450 1449 1448 1446 1445 1444 1443 1441 1440 1438 1437 1436 1435 1434 1433 1432 1430 1429 1428 1427 1426 1426 1425 1424 1423 1423 1423 1423 1423 1424 1424 1424 1424 1424 1424 1425 1426 1426
1452 1452 1451 1449 1448 1448 1447 1446 1444 1443 1442 1441 1440 1438 1437 1436 1434 1433 1433 1432 1430 1429 1428 1427 1426 1425 1424 1423 1423 1422 1421 1421 1421 1421 1421 1422 1422 1422 1422 1422 1422 1422 1422 1423
1449 1449 1448 1447 1445 1445 1444 1443 1442 1440 1439 1438 1437 1436 1435 1434 1432 1431 1430 1429 1428 1427 1426 1425 1424 1423 1422 1421 1420 1420 1420 1420 1420 1420 1420 1420 1420 1420 1420 1420 1420 1420 1420 1420
1447 1445 1444 1443 1443 1442 1441 1440 1439 1438 1437 1436 1435 1434 1433 1432 1430 1429 1428 1427 1426 1425 1424 1423 1422 1421 1420 1419 1419 1418 1418 1418 1418 1418 1418 1418 1418 1418 1418 1418 1418 1418 1418 1418
1445 1444 1443 1442 1440 1439 1438 1438 1437 1436 1435 1434 1433 1432 1431 1429 1428 1427 1426 1425 1424 1423 1422 1422 1420 1419 1418 1417 1417 1416 1416 1416 1416 1416 1416 1416 1416 1416 1416 1416 1416 1416 1416 1416
1442 1441 1440 1439 1438 1437 1436 1435 1434 1433 1433 1432 1431 1430 1429 1428 1427 1426 1425 1423 1422 1421 1420 1420 1419 1417 1416 1416 1415 1415 1414 1414 1414 1414 1414 1414 1414 1414 1414 1414 1414 1414 1413 1413
1440 1438 1437 1436 1435 1435 1434 1433 1432 1431 1431 1430 1429 1428 1427 1426 1425 1424 1423 1421 1420 1419 1419 1418 1416 1415 1415 1414 1413 1413 1412 1412 1412 1412 1412 1411 1411 1411 1411 1411 1411 1411 1410 1410
1438 1437 1435 1434 1433 1433 1432 1431 1431 1430 1429 1428 1427 1426 1425 1424 1423 1422 1420 1419 1418 1418 1417 1416 1414 1413 1412 1412 1411 1410 1410 1409 1409 1409 1409 1409 1408 1408 1408 1408 1407 1407 1407 1406
1436 1435 1434 1433 1432 1431 1431 1430 1429 1428 1427 1426 1425 1424 1423 1422 1421 1419 1418 1417 1416 1415 1414 1413 1412 1411 1410 1409 1408 1408 1407 1407 1406 1406 1406 1405 1405 1405 1404 1404 1404 1403 1403 1403
1435 1434 1433 1432 1431 1430 1429 1428 1427 1426 1425 1424 1423 1422 1421 1420 1418 1417 1415 1415 1414 1413 1411 1410 1409 1408 1408 1406 1405 1405 1404 1403 1403 1402 1402 1402 1401 1401 1401 1400 1400 1399 1399 1398
1434 1433 1432 1431 1430 1429 1428 1427 1426 1425 1424 1423 1421 1420 1419 1417 1416 1415 1413 1412 1411 1409 1408 1407 1406 1405 1404 1403 1402 1401 1400 1400 1399 1399 1398 1398 1397 1397 1396 1396 1395 1395 1394 1394
1433 1432 1431 1430 1429 1428 1427 1425 1424 1423 1422 1420 1419 1418 1416 1415 1414 1412 1410 1409 1407 1406 1405 1403 1403 1401 1400 1399 1398 1397 1397 1396 1395 1395 1394 1394 1393 1392 1392 1391 1391 1390 1390 1389
1432 1431 1430 1429 1428 1427 1425 1424 1422 1421 1420 1418 1417 1415 1414 1412 1411 1409 1407 1406 1404 1403 1401 1400 1399 1398 1396 1395 1394 1394 1393 1392 1391 1390 1390 1389 1389 1388 1387 1387 1386 1386 1385 1384
1431 1430 1428 1427 1426 1425 1424 1422 1421 1419 1418 1416 1414 1413 1412 1410 1408 1406 1404 1403 1401 1400 1398 1396 1395 1394 1393 1392 1391 1390 1389 1388 1387 1386 1385 1385 1384 1383 1382 1382 1381 1380 1380 1379